CZ-6A DEB, 54990

Orbit data source: Space-Track

CZ-6A DEB, 54990 is space debris in SSO originally from a launch on Fri, 11 Nov 2022 UTC launched from the Taiyaun Space Center, China (TSC). Debris objects in space refer to the collection of defunct objects orbiting the Earth. Examples of debris include non-operational satellites, rocket bodies, and fragments generated from explosions, collisions, or faulty payload assembly.

Loading next visibility...
Identifier
54990, 2022-151UF
Orbit
SSO
Country
Flag of CNCN / PRC
Related business
Manufacturer
SAST
Mission
Spacecraft
Bus & Motor
Unknown
Mass
Unknown
Launch date (UTC)
2022-11-11 (3 years ago)
Launch vehicle
Unknown
Launch site
Taiyaun Space Center, China (TSC)
Object type
Payload
Rocket body
Debris
Shape & HBR
Unknown shape, 0.1 m
Radar Cross Section
Small (<0.1 m²)

Expand to show TLE details & history
Last TLE update: 2 days ago

TLE from 2 days ago
0 CZ-6A DEB
1 54990U 22151UF  25349.07527390  .00005294  00000-0  11501-2 0  9994
2 54990  98.6484  30.9273 0081164 172.9876 187.2477 14.56452334161553
Epoch: 2025-12-15T01:48Z
TLE epoch observation values (Epoch: 2025-12-15T01:48:23.664Z)
Latitude
-0.00003°
Longitude
-80.15034°
Altitude
764.665 km
Speed
7.442 km/s
True Right ascension
02h 03m 42s
True Declination
0° 00' 00"
Sunlit
Object was in full shadow at epoch
Visualization orbit readout
Latitude
Unknown
Longitude
Unknown
Altitude
Unknown
Speed
Unknown
Apparent Right ascension
Unknown
Apparent Declination
Unknown
Sunlit
N/A
Visualization observer readout
Local Sidereal Time
23:47:38
Azimuth
Unknown
Elevation
Unknown
Doppler factor
Unknown
Orbital elements
Apogee altitude
759.222 km
Perigee altitude
644.296 km
Semi-major axis
7,079.896 km
Eccentricity
0.00812
Inclination
98.6484°
RAAN
30.9273°
Arg. of periapsis
172.9876°
True anomaly
187.13153°
Mean anomaly
187.2477°
Eccentric anomaly
187.1895°
Mean motion
3.64337 °/min
Orbital period
98.81 mins
BSTAR
0.0011501
Loading maneuver chart data...
Computing Atmospheric mass density...
Loading historical data...
Loading historical data...
Loading historical data...
Loading historical data...
Loading historical data...
Loading historical data...
Loading historical data...

Documentation

Showing up to 5 results
|